Regional Weather Roundup
Issued by NWS Wakefield, VA

Home | Current Version | Previous Version | Text Only | Print | Product List | Glossary Off
Versions: 1 2 3 4 5 6 7 8 9 10 11 12 13 14 15 16 17 18 19 20 21 22 23 24 25 26 27 28 29 30 31 32 33 34 35 36 37 38 39 40 41 42 43 44 45 46 47 48 49 50

000
ASUS41 KAKQ 091714
RWRAKQ

REGIONAL WEATHER ROUNDUP
NATIONAL WEATHER SERVICE WAKEFIELD VA
1200 PM EST TUE FEB 09 2016

Note: "fair" indicates few or no clouds below 12,000 feet with no
significant weather and/or obstructions to visibility. * = Denotes
station may not report precipitation (e.g., rain,snow,etc.),
thunder or fog.

VAZ042-051-052>054-056-091800-
NORTHERN VIRGINIA

CITY           SKY/WX    TMP DP  RH WIND       PRES   REMARKS
WASH NATIONAL  LGT RAIN  37  34  89 NW8       29.58F
DULLES         LGT RAIN  36  33  89 W5        29.57F VSB 1/2
FORT BELVOIR   DRIZZLE   38  34  87 NW9       29.57F
QUANTICO       CLOUDY    39  35  86 N7        29.60S
FREDERICKSBRG* LGT RAIN  37  37 100 NW8       29.58F
STAFFORD*      LGT RAIN  37  35  90 N3        29.62F
WARRENTON      LGT RAIN  38  37  96 CALM      29.57S
CULPEPER*      DRIZZLE   38  33  81 W6        29.58F
MANASSAS*      CLOUDY    37  37 100 CALM      29.58F
LEESBURG*      MIX PCPN  36  36 100 CALM      29.57F
WINCHESTER     CLOUDY    37  32  81 W13       29.55F
FRONT ROYAL*   CLOUDY    36  32  87 W8        29.56S
LURAY*         CLOUDY    34  28  80 SW5       29.56F
$$

VAZ048-049-060>072-079>083-091800-
CENTRAL AND SOUTH CENTRAL VIRGINIA

CITY           SKY/WX    TMP DP  RH WIND       PRES   REMARKS
RICHMOND       PTSUNNY   43  33  68 NW15      29.58F
CHESTERFIELD*  PTSUNNY  N/A N/A N/A NW13      29.60F
PETERSBURG*    CLOUDY    45  26  46 W8        29.60S
HANOVER        CLOUDY    41  34  76 NW10      29.60F
TAPPAHANNOCK*  CLOUDY    42  35  76 SW10      29.58S
QUINTON*       CLOUDY    42  33  69 SW6G17    29.57F
CHARLOTTSVILLE CLOUDY    40  28  62 W6        29.56F
GORDONSVILLE*  CLOUDY    40  32  74 CALM      29.57S
ORANGE*        CLOUDY    41  34  75 SW6       29.58F
LOUISA*        CLOUDY    41  34  75 W9        29.56F
BUMPASS*       CLOUDY    39  33  81 W7        29.58F
FARMVILLE*     CLOUDY    44  28  54 SW13      29.58F
CREWE*         CLOUDY    44  29  57 W9        29.59F
FORT PICKETT*  CLOUDY    45  28  50 W13       29.59F
CHASE CITY*    CLOUDY    41  25  52 W8G16     29.62F
CLARKSVILLE*   CLOUDY    41  27  56 W7        29.62F
SOUTH HILL*    CLOUDY    43  29  57 NW6       29.66F
LAWRENCEVILLE* CLOUDY    43  28  56 W6G16     29.61S
EMPORIA*       CLOUDY    43  30  61 SW8G16    29.62F
$$

VAZ088>098-091800-
SOUTHEAST VIRGINIA

CITY           SKY/WX    TMP DP  RH WIND       PRES   REMARKS
NORFOLK        FAIR      45  33  63 W8G16     29.58F
VIRGINIA BEACH PTSUNNY   48  34  58 W13       29.58F
NORFOLK NAVAL  PTSUNNY   46  35  65 W12       29.60F
WEST POINT*    PTSUNNY   44  34  67 W10G16    29.59F
SALUDA*        CLOUDY    45  36  70 SW7       29.56F
NEWPORT NEWS   CLOUDY    46  37  71 W10       29.58F
LANGLEY AFB    CLOUDY    44  37  76 W9        29.57F
FORT EUSTIS    NOT AVBL
WILLIAMSBURG*  FAIR      48  37  66 W8        29.59F
HR EXEC AP*    FAIR      46  34  61 W13G20    29.61S
FRANKLIN*      CLOUDY    44  31  59 W10G17    29.61F
US460-WAKEFLD  PTSUNNY   47  30  51 W13       29.59F
$$

VAZ020-022-025-037-045-091800-
WEST CENTRAL AND SOUTHWEST VIRGINIA

CITY           SKY/WX    TMP DP  RH WIND       PRES   REMARKS
STAUNTON*      CLOUDY    40  26  57 W7        29.58F
WAYNESBORO*    CLOUDY    34  21  58 W8G17     29.56F
HOT SPRINGS VA LGT SNOW  20  20 100 W18       29.46S WCI   5
LYNCHBURG      CLOUDY    38  21  50 W13G20    29.61F
DANVILLE       CLOUDY    40  21  46 W10       29.65F
SOUTH BOSTON*  CLOUDY    41  22  46 W12       29.64S
MARTINSVILLE   CLOUDY    35  15  44 W10G18    29.67S
ROANOKE        PTSUNNY   33  19  56 NW15G21   29.65S WCI  23
BLACKSBURG     CLOUDY    27  18  68 W8G18     29.65R
DUBLIN*        CLOUDY    28  18  66 W16G22    29.63S WCI  16
MARION*        LGT SNOW  24  19  80 SW22      29.63F WCI   8
HILLSVILLE*    FLURRIES  24  16  71 NW12      29.58S WCI  13
RICHLANDS*     CLOUDY    20  11  69 W9        29.64S
WISE*          FLURRIES  21  10  63 W10       29.67S WCI  10
ABINGDON*      CLOUDY    25  12  56 W13G22    29.69S WCI  14
$$

MDZ021>025-VAZ099-100-091800-
SOUTHERN MARYLAND AND THE DELMARVA PENINSULA

CITY           SKY/WX    TMP DP  RH WIND       PRES   REMARKS
PATUXENT RIVER LGT RAIN  40  37  89 SE6       29.56F
BAY BRIDGE APT   N/A     37  36  93 CALM      29.56F
LEONARDTOWN    CLOUDY    37  36  93 W3        29.57F
DOVER          LGT RAIN  39  39 100 NE6       29.55F
GEORGETOWN     CLOUDY    40  37  89 E6        29.56F
EASTON         CLOUDY    39  39 100 E5        29.59F
CAMBRIDGE      CLOUDY    37  36  93 E7        29.55F
SALISBURY      CLOUDY    41  38  89 E6        29.55F
OCEAN CITY     CLOUDY    41  37  86 E8        29.56F
WALLOPS ISLAND CLOUDY    43  39  86 NE6       29.57S
ACCOMACK*      CLOUDY    43  37  81 W10       29.57R
$$

NCZ012>017-030>032-091800-
NORTH CENTRAL AND EASTERN NORTH CAROLINA

CITY           SKY/WX    TMP DP  RH WIND       PRES   REMARKS
ROANOKE RAPIDS PTSUNNY   45  32  61 W12       29.62F
RALEIGH        PTSUNNY   41  28  60 W10       29.65F
ELIZABETH CITY MOSUNNY   48  31  51 W15       29.61F
AHOSKIE*       MOSUNNY   47  31  54 SW3       29.62F
EDENTON*       PTSUNNY   48  32  53 W10G16    29.63F
CURRITUCK*     MOSUNNY   46  36  67 W13       29.61S
KILL DEVIL HLS SUNNY     47  34  61 W15G21    29.60F
MANTEO         SUNNY     46  33  59 NW9G18    29.62F
CAPE HATTERAS  SUNNY     47  34  60 W9G23     29.65S
TARBORO*       CLOUDY    46  32  58 W14       29.66F
GOLDSBORO      PTSUNNY   45  39  81 SW15      29.64F
WASHINGTON     MOSUNNY   44  30  58 W9G17     29.65F
GREENVILLE     CLOUDY    45  32  61 W9G17     29.69F
NEW BERN       CLOUDY    45  32  60 W9        29.68F
WILMINGTON     SUNNY     47  27  45 W23       29.71F
$$

VAZ048-091800-
ELSEWHERE

CITY           SKY/WX    TMP DP  RH WIND       PRES   REMARKS
HARRISBURG PA  SNOW      31  29  92 CALM      29.57F VSB 1/4
BALTIMORE      LGT SNOW  34  33  96 NE5       29.56F FOG
ANNAPOLIS      LGT RAIN  36  34  92 CALM      29.56F FOG
ANDREWS AFB    LGT RAIN  37  35  93 W3        29.55F FOG
PHILADELPHIA   CLOUDY    35  29  78 E8        29.60F
HENDERSON NC   MOSUNNY   43  23  46 W8        29.63F
GREENSBORO     PTSUNNY   39  16  39 W16G23    29.65S
ROCKY MOUNT    CLOUDY    44  31  60 W12       29.65F
$$

VAZ100-091800-
MARINE

STATION/POSITION TIME  TEMP    WIND        PRES    WAVE   SWELL
                       AIR SEA DIR/SP/G            HT/PER HT/PER
                 (UTC) (F)     (DEG/KT/KT) (MB)    (FT/S) (FT/S)
BRANDYWINE LGT   1600   39      70/ 12/ 13 1001.3F
CAPE MAY NJ      1600   41 42   60/ 11/ 15 1000.8F
LEWES DE         1600   41 41   70/ 13/ 15 1001.1F
15NM E FENWICK I 1650   41 43              1000.5F   9/14
OCEAN-CITY-INLET 1600   41 41   70/  5/  7 1000.4F
WACHAPREAGUE VA  1600   42 42   30/  2/  3 1001.3F
GOOSES REEF MD   1700   39 40  210/  4/  4 1002.1F   1/ 2
COVE POINT MD    1600   38     200/  2/  3 1002.0F
SOLOMONS ISLAND  1600   38 41  100/  5/  7   N/A
BISHOPS HEAD MD  1600   40 41  100/  6/  8 1000.4F
PINEY POINT MD   1600          160/  7/  7   N/A
POTOMAC MD       1700   40 41  110/  6/  6  999.7F   1
CAMBRIDGE MD     1600   39 40   90/  6/  8 1000.5F
LEWISETTA VA     1606   40 42  100/  5/  6 1001.0R
RAPPAHANNOCK LGT 1600          250/  8/  9 1001.7R
STINGRAY PT      1700   42 42  300/  2/  4 1001.2F   0
YORK RVR RNG VA  1600   41     270/ 10/ 12 1001.3R
YORKTOWN VA      1600   41 43  270/ 10/ 14 1001.8R
JAMESTOWN VA     1700   42 44  310/  6/ 10   N/A     0
DOMINION TERM VA 1600   41     290/ 10/ 12 1002.1F
KIPTOPEKE VA     1600      43  280/ 14/ 15   N/A
CHES BAY BRIDGE  1600   41 44  250/ 13/ 15 1001.8R
CAPE HENRY VA    1600   41     260/ 12/ 14   N/A
CHESAPEAKE LGHT  1600   42     280/ 14/ 16 1002.8R
WILLOUBY STN VA  1600   40     250/ 10/ 12   N/A
CAPE HENRY BUOY  1628      45                N/A     5/14   3/14
1ST LANDING BUOY 1700      44                N/A     4/ 6
CAPE CHARLES BUO 1626      44                N/A     6/15   5/15
OFFSHORE WE BUOY 1621      46                N/A     7/15   7/15
64NM E OF VA BCH 1650   45 51  280/ 17/ 23 1000.9R  10/15  10/15
DUCK PIER NC     1600   43     270/ 13/ 17 1002.1R
44100 DUCK FRF   1624      47                N/A     8/14   7/14
44056 DUCK FRF   1611      45                N/A     7/15   7/15
OREGON INLET NC  1600   46 45  260/  8/ 12 1002.9R
HATTERAS NC      1600   44 52  260/ 19/ 23 1003.7R
DIAMOND SHLS NC  1650   47 73  280/ 21/ 27 1004.0R  12/15  11/15
$$



USA.gov is the U.S. government's official web portal to all federal, state and local government web resources and services.